This is the latest recevied weather packets stored in our database for station/object N3AVN. If no packets are shown the sender has not sent any weather packets the latest 10 day(s).
| Time | Temp. | Humidity | Pressure | Rain* | Wind** | Luminosity | Snow |
|---|---|---|---|---|---|---|---|
| 1777481348 | 17.22° C | 54% | 1012.8 hPa | 0 mm | - | 389 W/m² | - |
| 1777481044 | 17.78° C | 53% | 1012.8 hPa | 0 mm | - | 333 W/m² | - |
| 1777480741 | 17.78° C | 55% | 1012.7 hPa | 0 mm | - | 470 W/m² | - |
| 1777480438 | 17.22° C | 54% | 1012.9 hPa | 0 mm | - | 340 W/m² | - |
| 1777480134 | 17.78° C | 54% | 1013 hPa | 0 mm | - | 598 W/m² | - |
| 1777479830 | 17.78° C | 53% | 1013 hPa | 0 mm | - | 602 W/m² | - |
| 1777479528 | 16.67° C | 54% | 1012.9 hPa | 0 mm | - | 573 W/m² | - |
| 1777479224 | 16.11° C | 55% | 1012.9 hPa | 0 mm | - | 481 W/m² | - |
| 1777478921 | 16.67° C | 54% | 1013.5 hPa | 0 mm | - | 461 W/m² | - |
| 1777478617 | 17.78° C | 53% | 1013.2 hPa | 0 mm | - | 688 W/m² | - |
| 1777478315 | 17.78° C | 51% | 1013.4 hPa | 0 mm | - | 383 W/m² | - |
| 1777478012 | 17.22° C | 55% | 1013.3 hPa | 0 mm | - | 579 W/m² | - |
| 1777477706 | 17.22° C | 53% | 1013.3 hPa | 0 mm | - | 592 W/m² | - |
| 1777477404 | 15.56° C | 56% | 1013.4 hPa | 0 mm | - | 453 W/m² | - |
| 1777477100 | 16.67° C | 58% | 1013 hPa | 0 mm | - | 566 W/m² | - |
| 1777476798 | 16.67° C | 55% | 1013.4 hPa | 0 mm | - | 546 W/m² | - |
| 1777476494 | 15.56° C | 56% | 1013.5 hPa | 0 mm | - | 628 W/m² | - |
| 1777476191 | 17.22° C | 56% | 1013.3 hPa | 0 mm | - | 641 W/m² | - |
| 1777475887 | 16.67° C | 56% | 1013.4 hPa | 0 mm | - | 590 W/m² | - |
| 1777475583 | 15.56° C | 56% | 1013.5 hPa | 0 mm | - | 602 W/m² | - |
| 1777475274 | 16.67° C | 58% | 1013.4 hPa | 0 mm | - | 689 W/m² | - |
| 1777474969 | 15° C | 59% | 1013.4 hPa | 0 mm | - | 575 W/m² | - |
| 1777474665 | 15.56° C | 57% | 1013.6 hPa | 0 mm | - | 621 W/m² | - |
| 1777474362 | 15.56° C | 57% | 1013.8 hPa | 0 mm | - | 712 W/m² | - |
| 1777474058 | 14.44° C | 60% | 1013.7 hPa | 0 mm | - | 702 W/m² | - |
* Rain latest hour (hover to see other rain measurements)
** Current wind speed in m/s (hover to see current wind gust speed)